Flag for U.S.A. Weather past 2 weeks in Los Angeles, California, U.S.A.

Now
70 °F

Overcast.


Feels Like: 73 °F
Forecast: 63 / 78 °F
Wind: No wind

Location: Los Angeles / USC Campus Downtown

Current Time: Aug 19, 2014 at 10:35:30 PM

Latest Report: Aug 19, 2014 at 9:47 PM


Visibility: 10 mi

Pressure: 29.87 "Hg

Humidity: 73%

Dew point: 61 °F

Location of Los AngelesLocation

Historic Weather in Los Angeles — Graph

°F

Los Angeles temperature yesterday

Maximum temperature yesterday: 85 °F (at 12:47 PM)
Minimum temperature yesterday: 65 °F (at 5:47 AM)
Average temperature yesterday: 73 °F

Past Weeks' High & Low Weather Summary

 TemperatureHumidityPressure
High89 °F (Aug 16, 12:47 PM)91% (Aug 11, 3:47 AM)30.06 "Hg (Aug 11, 3:47 AM)
Low63 °F (Aug 5, 3:55 AM)25% (Aug 15, 1:47 PM)29.78 "Hg (Aug 18, 3:47 PM)
Average72 °F68%29.93 "Hg
* Reported Aug 4 8:47 PM — Aug 19 8:47 PM, Los Angeles, Weather by CustomWeather, © 2014

Note: Actual official high and low records may vary slightly from our data, if they occured in-between our weather recording intervals... More about our weather records

Advertising

Los Angeles weather history for previous 24 hours

 ConditionsComfort  
Time TempWeatherWind HumidityBarometerVisibility
8:47 PM
Aug 19
70 °FOvercast.No wind73%29.86 "Hg10 mi
7:47 PM70 °FPartly sunny.3 mph73%29.83 "Hg10 mi
6:47 PM71 °FPassing clouds.3 mph73%29.83 "Hg10 mi
5:47 PM74 °FPassing clouds.3 mph67%29.83 "Hg10 mi
4:47 PM75 °FPassing clouds.5 mph64%29.83 "Hg10 mi
3:47 PM77 °FSunny.3 mph60%29.83 "Hg10 mi
2:47 PM81 °FSunny.N/A53%29.84 "Hg10 mi
1:47 PM81 °FSunny.6 mph49%29.85 "Hg10 mi
12:47 PM80 °FSunny.5 mph49%29.86 "Hg10 mi
11:47 AM77 °FSunny.No wind56%29.88 "Hg10 mi
10:47 AM76 °FOvercast.6 mph58%29.89 "Hg10 mi
9:47 AM73 °FOvercast.3 mph62%29.89 "Hg10 mi
8:47 AM71 °FOvercast.3 mph68%29.88 "Hg10 mi
7:47 AM71 °FOvercast.No wind68%29.87 "Hg10 mi
6:47 AM71 °FOvercast.No wind68%29.86 "Hg10 mi
5:47 AM70 °FOvercast.5 mph71%29.85 "Hg10 mi
4:47 AM71 °FOvercast.3 mph71%29.85 "Hg10 mi
3:47 AM70 °FOvercast.6 mph71%29.85 "Hg10 mi
2:47 AM70 °FOvercast.5 mph73%29.85 "Hg10 mi
1:50 AM70 °FOvercast.5 mph73%29.86 "Hg10 mi
1:47 AM70 °FOvercast.3 mph73%29.85 "Hg10 mi
12:56 AM70 °FPassing clouds.5 mph79%29.86 "Hg10 mi
11:47 PM
Aug 18
68 °FClear.No wind73%29.85 "Hg10 mi
10:47 PM68 °FClear.No wind76%29.84 "Hg10 mi
Weather by CustomWeather, © 2014

See weather overviewHow to use our weather pages